Location: Ladirat
(44.8151°N, 1.9702°E)
Time: 07:52:34
(UTC+00:00)

Cosmos 2026 Rocket - Pass Details

Date: 15 May 2026
Orbit: 939 x 999 km, 82.9° (Epoch: 6 June)

Event Time Altitude Azimuth Distance (km) Brightness Sun altitude
Rises 22:30:46 0° 348° (NNW) 3,730 8.4 -23.7°
Reaches altitude 10° 22:33:20 10° 345° (NNW) 2,778 7.5 -23.9°
Maximum altitude 22:39:37 62° 267° (W) 1,120 4.3 -24.2°
Enters shadow 22:41:40 42° 208° (SSW) 1,396 4.5 -24.3°
